Wetbulb
43.75 41.64 39.52 43.01 43.55 43.93 41.01 39.78 39.15 41.82 44.25 41.70 40.99 41.75 43.23 45.37 45.65 45.46 46.49 47.60 48.21 48.80 50.68 50.76 51.17 52.03 52.33 51.64 51.30 50.95 50.64 50.92 51.82 51.70 52.10 52.82 52.26 52.47 52.51 53.24 51.22 50.42 49.22 47.96
40.82 38.63 43.60 43.00 41.39 40.23 40.33 38.56 38.87 42.45 43.17 39.17 41.21 40.17 43.41 45.14 45.50 46.08 46.25 47.10 47.92 49.10 50.23 50.14 50.05 50.63 51.17 51.14 51.32 50.31 50.04 49.72 50.26 50.96 51.75 52.19 51.58 51.95 51.28 51.95 50.45 49.88 48.22 47.53
41.43 44.00 42.73 40.44 40.36 38.47 39.02 37.29 39.05 39.07 40.69 41.96 39.51 41.23 41.93 45.36 45.01 46.02 46.21 46.87 47.70 48.22 48.40 48.28 48.56 49.70 50.89 50.91 51.19 50.30 49.90 49.39 48.96 49.69 50.07 50.08 50.59 49.12 48.62 49.35 48.53 48.34 47.46 46.54
40.59 42.53 39.62 38.40 38.02 40.06 36.73 42.09 39.45 37.69 36.22 35.47 39.58 34.00 41.31 44.01 44.51 45.26 45.89 46.21 47.33 48.52 48.65 48.32 49.03 48.97 48.58 48.35 49.01 49.10 48.95 48.74 48.34 48.30 47.88 47.78 46.36 45.75 46.72 47.44 47.53 47.11 46.50 46.47
40.12 38.01 37.16 37.30 39.24 40.33 39.12 39.63 37.68 36.77 36.54 34.51 37.75 33.08 41.28 42.15 42.15 43.71 45.24 46.68 47.69 48.98 47.47 46.83 46.67 46.93 47.70 47.29 46.78 47.12 46.96 47.21 47.18 46.55 46.97 46.81 46.36 47.46 47.81 47.14 46.52 45.88 45.02 45.45
40.20 40.47 40.40 41.16 39.52 40.11 39.69 38.66 37.40 36.01 35.82 30.74 38.32 36.09 38.45 40.31 40.89 42.40 45.96 46.89 48.50 46.20 45.96 45.82 45.21 45.16 44.65 45.08 44.71 44.89 44.41 44.66 45.31 45.76 45.91 45.89 45.54 45.74 45.99 45.99 44.79 44.74 44.14 43.20
38.53 38.29 40.61 40.35 38.33 38.62 38.68 36.97 32.52 32.07 32.12 31.52 37.37 33.76 37.62 43.45 45.17 43.46 44.14 44.66 43.48 43.20 42.13 41.37 40.91 41.11 41.49 41.30 42.25 42.52 42.46 41.85 42.81 43.26 44.03 44.63 45.06 45.13 44.72 45.23 43.81 43.41 42.37 41.57
36.24 34.84 38.14 40.57 40.60 40.36 37.51 38.54 33.16 25.61 27.77 32.21 38.09 31.37 38.13 44.48 44.53 43.90 42.24 40.83 41.01 40.90 40.91 40.19 39.83 39.62 39.62 39.71 40.24 41.03 41.20 40.46 41.02 41.12 41.34 42.47 43.02 43.12 43.44 44.16 43.85 43.36 43.15 42.70
36.12 35.92 38.73 37.59 39.55 41.10 36.42 34.10 39.34 32.85 33.10 30.29 33.69 37.96 42.88 45.05 41.33 39.77 39.85 41.07 40.20 39.60 39.87 39.84 39.96 39.68 38.98 38.46 38.81 39.18 39.20 39.25 39.23 39.71 40.07 39.90 40.74 41.10 41.28 42.36 42.06 41.59 41.48 40.72
38.15 32.45 40.19 38.47 38.54 38.79 37.55 39.34 33.00 32.42 24.65 24.18 30.83 33.29 34.97 40.14 40.13 37.77 37.68 37.68 37.42 37.98 37.65 37.51 37.98 38.02 38.96 38.03 38.22 39.16 38.75 37.93 37.61 37.63 38.86 39.11 38.95 39.41 40.03 41.60 41.03 40.41 40.87 40.69
39.55 37.20 36.61 39.12 37.74 36.65 36.45 33.47 33.17 32.92 31.76 26.17 25.49 31.19 41.38 38.86 37.69 36.18 35.67 35.78 35.39 35.22 34.82 35.32 35.87 36.62 37.70 38.23 37.22 38.07 37.36 37.54 36.89 36.74 37.15 37.88 38.33 37.81 38.05 38.49 39.75 39.84 40.17 40.31
41.29 37.38 31.96 34.65 41.05 41.46 39.13 37.13 37.07 30.23 28.89 31.36 29.87 30.12 42.60 41.45 38.22 34.08 33.48 33.93 33.32 33.06 33.75 34.20 34.52 35.20 35.60 35.97 35.80 35.94 36.52 36.35 36.05 35.75 36.18 36.45 37.13 37.09 36.92 36.87 37.75 38.94 38.91 39.49
39.33 34.11 28.94 31.56 35.74 35.81 33.99 36.12 35.54 35.99 32.84 28.79 25.64 28.73 40.13 39.27 37.18 33.51 32.52 31.53 31.62 32.51 31.98 32.17 32.49 32.92 33.71 34.31 34.74 34.81 35.22 35.36 35.05 34.87 35.14 35.38 35.55 35.58 35.79 35.70 36.73 37.47 37.60 37.68
37.92 32.49 31.40 27.42 30.48 32.75 30.29 33.78 33.14 30.00 25.21 25.91 26.29 28.23 32.92 34.14 31.06 30.59 30.47 31.23 30.98 31.87 30.92 30.67 31.30 31.92 32.62 33.09 33.49 33.87 33.62 34.48 33.67 33.45 33.68 33.80 33.51 33.40 33.77 34.60 35.24 35.51 36.66 36.11
32.89 28.12 30.02 29.94 28.72 27.48 27.30 26.54 26.84 25.09 26.06 21.53 25.07 24.99 29.88 28.86 27.15 28.63 30.02 29.77 29.12 30.54 30.53 29.87 30.08 31.10 31.80 31.55 32.00 32.74 32.73 32.72 32.17 32.13 32.54 32.74 32.23 31.55 31.62 32.30 33.25 34.33 34.20 34.86
29.67 24.72 24.73 21.72 26.58 26.27 23.88 25.51 25.93 25.88 25.88 25.53 26.29 25.50 27.34 28.29 29.62 28.79 28.91 28.27 27.87 29.53 29.59 29.52 30.07 30.50 30.46 30.60 30.59 30.79 31.19 30.99 30.49 30.56 31.03 32.10 29.92 29.11 29.63 30.20 31.28 31.84 32.66 32.81
25.77 24.40 22.00 17.95 23.59 20.15 16.05 22.24 25.15 26.51 28.30 25.34 20.45 24.56 24.40 24.09 25.58 26.68 27.66 28.36 28.02 29.42 28.96 29.13 29.62 30.10 30.32 30.44 30.38 30.15 30.25 30.16 28.91 28.91 30.34 30.25 27.54 27.32 28.35 28.53 28.68 29.41 30.20 31.74
23.38 20.23 20.78 15.68 13.77 7.89 22.32 25.56 25.96 24.03 23.78 25.44 24.45 23.45 24.31 24.87 27.19 28.21 29.62 29.39 29.04 29.52 29.52 29.93 30.33 30.54 30.85 30.86 30.55 30.44 29.70 28.61 27.74 27.52 28.31 27.22 25.51 25.51 26.09 26.64 26.99 27.36 29.24 29.79
26.45 22.49 16.08 12.36 12.83 17.23 21.11 23.91 21.77 19.46 20.12 25.45 23.50 23.97 25.02 26.39 26.86 26.72 30.45 30.79 30.29 30.64 31.02 30.69 30.98 30.32 29.83 29.38 29.85 28.67 27.64 27.44 26.64 25.86 26.39 25.80 24.33 23.93 23.21 22.37 24.20 26.69 27.18 28.26
23.10 24.39 18.55 8.55 9.32 7.25 18.12 22.29 24.60 22.42 14.50 22.91 23.59 23.33 23.56 24.26 17.78 23.48 29.47 30.15 30.16 31.53 31.49 30.06 29.86 28.78 28.13 28.87 28.62 26.21 25.72 25.51 24.88 25.27 25.34 24.29 23.27 22.26 19.95 20.48 21.52 24.07 26.77 26.93
15.11 15.79 14.82 15.39 12.17 15.18 22.59 23.78 24.98 12.05 16.38 24.35 25.71 25.41 24.73 23.08 25.32 28.46 30.03 29.26 30.84 30.53 29.13 29.31 28.69 26.98 26.89 27.18 26.33 24.15 24.19 23.39 24.98 24.97 23.79 22.26 21.63 18.99 18.24 18.82 20.18 20.88 22.92 25.26
15.30 11.63 10.99 7.00 6.52 6.48 23.39 22.95 17.63 24.44 27.27 27.00 27.05 27.21 26.26 26.80 27.25 27.72 28.24 28.06 27.87 27.09 26.76 26.86 25.01 24.55 25.80 26.17 24.18 22.22 21.71 23.81 23.76 23.33 21.32 19.39 17.35 16.56 16.84 15.31 16.27 18.15 19.70 21.34
13.27 18.87 16.34 14.98 16.41 24.47 25.35 25.06 28.40 28.78 26.38 27.19 27.40 27.78 26.07 24.27 24.34 24.35 23.83 24.00 23.65 23.06 23.07 23.48 22.25 21.56 22.15 22.28 21.56 19.15 20.71 21.48 20.72 18.42 14.12 13.75 14.08 13.99 14.00 13.34 13.72 14.89 17.53 20.27
21.27 24.37 17.90 18.88 22.23 23.87 26.28 28.56 29.08 29.38 28.14 28.11 25.59 22.31 21.31 19.72 20.32 19.50 19.65 19.44 18.68 18.36 17.68 17.87 16.40 15.40 15.54 17.38 17.18 16.94 17.01 16.70 10.92 9.07 9.80 11.12 10.66 11.38 11.49 12.66 13.53 14.28 15.94 18.82
22.45 21.61 19.11 19.26 22.90 24.91 26.22 27.39 28.17 26.77 23.20 21.00 20.42 19.16 18.33 17.54 16.08 15.77 14.61 14.11 14.22 13.61 13.17 12.50 10.92 10.25 9.68 10.66 10.04 10.18 9.91 8.55 6.58 6.25 6.70 7.11 7.82 7.53 8.31 10.07 11.21 12.84 15.08 16.64
24.33 21.08 18.37 17.18 24.91 24.65 25.31 28.39 21.33 20.31 18.14 17.27 15.92 15.36 15.47 13.82 12.13 12.21 10.83 11.11 9.95 8.66 7.97 6.51 5.57 4.80 4.19 3.97 3.34 3.47 3.41 2.84 1.38 1.56 2.61 3.58 4.08 4.62 5.43 5.93 6.94 12.31 14.88 17.34
MSLP
1017.05 1016.67 1015.65 1014.77 1014.59 1014.20 1014.23 1013.74 1013.03 1012.90 1013.01 1012.70 1011.52 1010.81 1010.33 1009.26 1008.70 1007.69 1006.73 1006.55 1006.87 1006.82 1006.89 1007.48 1007.60 1007.64 1007.71 1007.99 1008.09 1008.35 1008.80 1009.48 1010.09 1010.71 1011.17 1011.54 1011.31 1011.84 1012.20 1012.32 1012.78 1013.44 1014.29 1014.90
1017.18 1015.94 1015.36 1015.30 1015.20 1015.11 1014.61 1014.08 1013.26 1012.58 1012.61 1013.20 1011.40 1010.07 1009.38 1008.40 1007.47 1006.78 1006.92 1006.62 1006.68 1006.61 1006.82 1007.31 1007.49 1007.47 1007.70 1008.05 1008.43 1008.88 1009.14 1009.52 1009.78 1010.01 1010.55 1010.76 1011.17 1011.27 1011.85 1012.20 1012.36 1012.60 1013.11 1013.84
1015.71 1015.01 1015.38 1015.61 1015.53 1015.32 1014.85 1014.45 1013.77 1013.38 1013.17 1012.20 1011.47 1008.88 1008.52 1007.37 1007.17 1006.37 1006.86 1007.16 1006.88 1006.78 1006.99 1007.53 1007.87 1007.99 1008.03 1008.23 1008.39 1008.46 1008.53 1008.91 1009.49 1010.09 1010.50 1010.73 1010.65 1010.90 1010.88 1011.04 1011.69 1011.99 1012.66 1013.15
1016.00 1015.65 1015.73 1015.87 1015.62 1015.43 1014.89 1014.13 1014.25 1014.13 1014.04 1012.45 1012.27 1007.53 1007.80 1007.21 1006.79 1006.40 1006.87 1006.75 1006.92 1007.13 1007.78 1008.11 1008.23 1009.09 1009.14 1009.55 1009.56 1009.27 1009.20 1009.46 1009.68 1010.07 1009.95 1010.06 1010.23 1010.16 1010.44 1010.76 1011.20 1011.53 1011.83 1011.88
1015.58 1015.85 1016.12 1015.91 1015.34 1015.41 1014.88 1014.80 1014.66 1014.46 1013.88 1013.17 1011.71 1010.53 1007.01 1006.95 1006.45 1006.63 1007.00 1007.25 1007.61 1007.58 1008.48 1009.03 1010.06 1010.49 1010.38 1010.71 1010.34 1010.14 1009.85 1009.63 1009.86 1010.28 1010.28 1010.11 1009.87 1009.66 1009.76 1010.50 1010.89 1011.24 1011.77 1011.94
1015.57 1016.04 1015.89 1015.50 1015.62 1015.47 1015.61 1015.31 1015.10 1014.69 1013.92 1012.08 1010.32 1009.88 1007.23 1006.86 1006.83 1006.90 1007.20 1007.70 1008.13 1009.42 1010.34 1010.86 1011.33 1011.56 1012.04 1012.19 1011.53 1011.02 1010.43 1010.27 1010.26 1010.19 1010.11 1010.09 1010.05 1009.84 1009.48 1009.40 1009.92 1010.72 1011.45 1011.80
1015.38 1015.29 1015.12 1015.15 1015.43 1015.71 1015.18 1015.37 1014.46 1013.73 1013.01 1010.66 1010.28 1009.16 1008.11 1007.40 1007.34 1008.33 1008.29 1008.77 1009.96 1011.04 1011.65 1011.85 1012.16 1012.42 1012.70 1012.47 1012.01 1011.71 1011.90 1011.73 1010.99 1010.67 1010.54 1010.23 1009.98 1009.79 1009.78 1009.54 1009.48 1009.59 1010.33 1011.09
1014.95 1014.61 1014.89 1014.64 1014.49 1014.40 1014.80 1014.73 1014.43 1013.69 1012.59 1010.74 1010.46 1006.33 1006.57 1007.29 1008.44 1009.79 1011.19 1011.78 1012.50 1013.11 1013.91 1014.45 1014.42 1013.93 1013.57 1013.24 1013.32 1013.44 1012.57 1011.75 1012.09 1011.87 1010.96 1010.58 1010.29 1010.19 1009.87 1009.44 1009.21 1009.02 1009.16 1009.28
1014.64 1013.94 1014.49 1014.63 1014.46 1014.26 1014.54 1014.48 1014.11 1014.11 1013.41 1012.08 1008.83 1006.26 1006.66 1006.90 1008.97 1010.94 1012.40 1013.06 1013.94 1014.61 1014.90 1015.20 1015.42 1015.19 1014.82 1014.59 1014.35 1014.13 1013.83 1013.37 1012.52 1011.93 1011.76 1010.78 1010.30 1010.14 1009.99 1009.46 1009.37 1009.35 1008.92 1008.66
1015.46 1014.58 1013.97 1014.36 1014.83 1014.77 1014.79 1014.53 1014.57 1014.63 1013.49 1011.65 1008.74 1007.61 1006.26 1007.69 1009.96 1012.05 1013.26 1014.61 1015.52 1015.68 1015.85 1016.03 1015.98 1015.79 1015.88 1015.70 1015.16 1014.74 1014.28 1013.98 1013.66 1012.99 1012.31 1011.74 1011.09 1010.45 1010.10 1009.80 1009.22 1009.09 1008.87 1008.80
1016.41 1016.06 1014.09 1014.73 1014.27 1013.89 1014.89 1015.03 1014.82 1014.30 1013.38 1011.74 1010.10 1007.45 1007.69 1009.52 1011.55 1012.90 1014.11 1015.32 1016.29 1016.43 1016.39 1016.53 1016.67 1016.27 1016.00 1015.83 1015.47 1014.81 1014.28 1014.04 1013.63 1013.26 1012.41 1012.11 1011.54 1010.75 1010.30 1009.72 1009.57 1009.18 1008.47 1008.25
1016.74 1016.55 1015.65 1013.98 1013.59 1013.84 1014.22 1014.20 1014.52 1014.14 1013.09 1012.08 1011.02 1009.10 1008.89 1010.55 1012.56 1014.40 1015.53 1016.30 1017.17 1017.11 1017.08 1017.03 1016.90 1016.42 1016.01 1015.80 1015.49 1014.91 1014.62 1014.31 1014.14 1013.41 1012.98 1012.36 1011.74 1011.04 1010.12 1009.79 1009.18 1008.87 1008.53 1007.82
1018.02 1017.37 1016.91 1014.76 1014.55 1014.92 1015.11 1014.77 1014.87 1014.63 1014.59 1012.96 1012.04 1010.85 1011.48 1011.65 1013.12 1014.92 1016.04 1016.85 1017.22 1017.36 1017.24 1017.59 1017.36 1016.96 1016.49 1016.22 1016.00 1015.71 1015.01 1014.67 1014.18 1013.96 1013.52 1012.43 1011.64 1010.86 1010.45 1010.01 1009.21 1008.75 1008.08 1007.66
1019.46 1018.61 1018.14 1017.13 1016.36 1016.42 1016.65 1016.70 1016.59 1016.66 1015.63 1014.65 1013.66 1013.04 1013.16 1013.87 1014.88 1015.37 1016.49 1016.93 1017.15 1017.32 1017.38 1017.37 1017.09 1017.10 1016.69 1016.66 1016.46 1015.89 1015.39 1014.86 1014.52 1014.12 1013.57 1012.88 1012.06 1011.37 1010.56 1010.11 1009.47 1008.68 1008.05 1007.37
1020.69 1019.94 1019.41 1018.71 1018.68 1018.36 1017.70 1017.81 1017.30 1017.38 1016.75 1016.21 1014.49 1014.22 1014.41 1015.43 1016.70 1016.59 1016.57 1016.94 1017.03 1016.85 1016.67 1016.80 1016.80 1016.71 1016.44 1016.63 1016.35 1015.97 1015.41 1015.07 1014.53 1014.10 1013.49 1013.21 1012.37 1011.84 1011.32 1010.05 1009.56 1008.41 1007.51 1007.32
1021.97 1021.11 1020.78 1019.69 1019.61 1019.04 1018.21 1017.68 1017.12 1017.09 1016.55 1016.00 1015.62 1014.93 1016.50 1017.30 1017.32 1017.10 1017.09 1016.65 1016.20 1016.13 1016.13 1016.35 1016.60 1016.53 1016.34 1016.40 1016.20 1015.89 1015.39 1015.33 1014.86 1013.87 1013.37 1012.81 1012.27 1011.83 1011.35 1010.30 1009.30 1008.56 1007.67 1007.02
1022.02 1021.89 1021.60 1020.43 1020.35 1019.79 1018.31 1016.80 1016.67 1016.04 1015.62 1016.15 1016.10 1016.49 1017.56 1017.74 1017.60 1017.36 1017.20 1017.17 1016.69 1016.30 1016.15 1016.07 1015.93 1015.86 1015.88 1015.83 1015.80 1015.49 1015.32 1015.18 1014.79 1014.39 1013.89 1013.09 1012.48 1011.87 1011.05 1010.13 1009.57 1008.86 1007.93 1006.99
1021.65 1022.29 1022.58 1021.44 1021.64 1019.76 1017.08 1017.04 1016.93 1016.93 1017.08 1017.41 1017.46 1017.64 1017.95 1017.97 1017.74 1017.48 1017.33 1016.95 1016.43 1016.13 1015.83 1015.69 1015.57 1015.45 1015.33 1015.22 1015.10 1014.92 1014.84 1014.62 1014.28 1013.82 1013.27 1012.95 1012.74 1012.23 1011.49 1010.90 1010.19 1009.19 1008.22 1007.06
1021.89 1022.55 1022.82 1022.56 1021.16 1019.08 1017.97 1017.58 1017.77 1017.77 1017.67 1017.73 1017.83 1018.13 1018.33 1018.22 1017.78 1016.90 1016.58 1016.41 1016.05 1015.69 1015.48 1015.44 1015.27 1015.13 1014.91 1014.68 1014.41 1014.18 1013.85 1013.60 1013.31 1012.99 1012.62 1012.41 1012.35 1011.98 1011.60 1011.04 1010.20 1009.31 1008.21 1007.42
1022.03 1022.42 1022.64 1023.18 1021.65 1019.54 1018.21 1018.35 1018.49 1018.86 1017.81 1017.58 1018.30 1018.38 1018.32 1018.17 1017.34 1016.14 1016.13 1015.93 1015.61 1015.36 1015.20 1015.11 1014.98 1014.92 1014.63 1014.06 1013.99 1013.77 1013.21 1012.85 1012.37 1012.23 1012.07 1012.07 1011.97 1011.79 1011.48 1010.87 1009.79 1008.58 1007.61 1006.57
1022.62 1022.58 1022.19 1021.78 1021.04 1019.48 1018.53 1018.66 1018.88 1018.59 1017.61 1017.62 1017.99 1017.99 1017.82 1017.57 1017.12 1016.41 1016.05 1015.71 1015.33 1015.16 1015.28 1015.16 1014.89 1014.52 1014.08 1013.88 1013.77 1013.32 1012.82 1012.15 1011.91 1011.69 1011.48 1011.40 1011.29 1011.37 1011.14 1010.31 1009.41 1008.28 1007.06 1005.75
1021.62 1021.78 1021.97 1022.14 1021.13 1019.54 1018.38 1018.63 1018.41 1017.23 1017.02 1017.32 1017.35 1017.28 1017.11 1016.96 1016.54 1016.33 1016.12 1015.88 1015.90 1015.73 1015.41 1015.18 1014.89 1014.22 1013.71 1013.67 1013.56 1012.92 1012.17 1011.82 1011.63 1011.24 1010.92 1010.70 1010.65 1010.60 1010.36 1009.85 1008.83 1007.94 1006.82 1005.29
1020.99 1020.24 1020.23 1020.54 1018.92 1018.04 1017.84 1017.45 1017.18 1017.26 1017.26 1017.09 1017.18 1017.13 1017.37 1017.48 1017.29 1017.20 1016.89 1016.77 1016.55 1016.59 1016.31 1015.93 1015.55 1014.65 1013.98 1013.88 1013.64 1012.74 1011.87 1011.84 1011.28 1010.86 1010.82 1010.59 1010.20 1009.83 1009.58 1009.06 1008.16 1007.18 1006.09 1004.62
1019.42 1019.38 1019.14 1019.01 1017.56 1017.24 1016.72 1016.79 1016.77 1016.92 1016.98 1017.15 1017.71 1018.13 1018.38 1018.22 1018.15 1017.93 1017.75 1017.48 1017.41 1017.37 1017.12 1016.77 1016.24 1015.37 1014.40 1014.33 1013.97 1013.54 1012.75 1012.40 1012.18 1011.60 1010.90 1010.34 1009.76 1009.04 1008.61 1008.07 1007.26 1006.20 1004.89 1003.68
1017.98 1018.27 1017.68 1017.21 1016.81 1016.59 1016.34 1016.41 1016.49 1017.03 1017.78 1018.31 1018.74 1019.13 1019.24 1019.25 1019.03 1019.02 1018.69 1018.52 1018.29 1018.14 1017.93 1017.72 1017.12 1016.24 1015.40 1015.14 1014.62 1014.38 1013.84 1013.36 1012.39 1011.58 1010.83 1010.12 1009.48 1008.64 1007.59 1006.77 1005.89 1004.98 1003.92 1003.36
1016.68 1016.34 1016.61 1015.69 1015.48 1015.92 1015.66 1016.13 1017.41 1018.03 1018.70 1019.29 1019.66 1019.75 1020.21 1020.41 1020.17 1019.96 1019.66 1019.58 1019.31 1018.83 1018.66 1018.18 1017.64 1016.98 1016.21 1015.65 1015.10 1014.77 1014.34 1013.66 1012.67 1011.52 1010.73 1009.90 1009.10 1008.20 1007.21 1005.98 1004.47 1004.01 1002.94 1001.92
Wind_Speed
2 7 11 17 17 15 10 14 19 18 18 20 19 18 17 24 20 24 24 19 13 13 13 9 10 10 8 8 9 11 12 13 12 12 12 12 14 12 13 13 19 20 17 19
4 12 16 5 5 10 15 16 19 16 9 5 18 23 23 22 24 22 17 14 11 11 9 11 9 8 8 8 7 9 11 11 12 10 9 10 10 11 12 12 15 19 20 19
18 9 2 10 13 13 11 13 17 19 13 14 14 16 4 6 7 12 8 9 10 9 11 10 9 11 10 12 13 9 8 11 12 13 9 10 9 9 10 13 12 15 19 19
10 4 7 4 10 11 15 11 14 12 7 10 9 16 6 11 13 11 3 3 5 5 5 5 9 14 12 11 12 11 9 8 8 11 11 15 12 13 11 11 11 12 19 20
3 3 4 6 8 10 4 2 1 2 8 9 5 9 3 5 11 6 3 7 6 8 5 8 18 15 14 12 11 10 10 8 6 8 13 11 14 11 10 9 13 16 15 18
10 1 4 4 2 5 2 2 2 1 4 8 5 8 5 4 2 2 10 12 15 20 16 15 17 17 17 17 18 17 17 12 8 7 10 14 15 14 11 10 10 10 10 11
3 6 3 4 5 3 4 4 6 7 6 11 4 11 6 10 12 8 16 20 22 23 21 20 22 21 20 22 21 17 20 19 16 10 10 11 15 15 15 14 11 12 10 11
8 12 9 9 9 6 8 8 8 6 12 21 12 20 7 4 6 14 17 17 16 18 17 18 19 18 20 21 21 21 20 19 20 17 13 10 12 9 10 12 11 10 11 11
6 13 1 5 2 6 6 7 5 9 14 12 17 30 20 17 9 13 14 17 16 14 15 15 16 17 17 17 19 19 19 19 18 19 17 15 12 12 11 12 10 10 11 10
2 13 10 3 3 3 5 3 9 6 10 20 21 22 15 15 8 7 9 10 10 13 15 16 16 16 14 15 14 16 17 17 18 18 16 14 15 14 14 13 12 13 12 12
5 6 13 5 10 17 9 9 8 7 9 12 18 17 14 6 8 6 7 7 9 10 11 11 11 12 13 13 13 14 15 16 17 17 16 17 15 15 13 12 13 14 13 13
11 9 18 27 23 14 16 22 20 11 11 13 16 20 21 6 8 9 5 5 5 7 9 11 12 12 14 15 16 17 15 14 15 15 14 14 14 15 15 13 14 13 14 13
4 4 10 9 9 1 7 10 15 19 7 21 20 11 6 13 16 13 9 3 4 6 8 9 11 12 13 14 15 15 15 16 16 16 15 13 13 15 16 16 14 13 13 14
5 3 7 13 13 16 9 6 5 5 5 9 13 20 19 17 18 14 8 7 8 6 6 10 11 11 11 12 13 14 16 15 15 15 15 16 15 16 15 15 14 14 13 14
1 10 12 14 11 8 9 10 15 15 16 11 17 22 24 13 7 11 15 12 12 10 10 13 12 12 11 11 11 12 14 14 15 14 14 15 15 15 15 15 15 14 13 14
2 3 4 8 11 14 19 20 23 24 25 26 26 26 6 4 7 10 13 16 18 15 13 15 14 14 13 13 12 12 12 13 14 15 16 14 15 14 14 14 14 13 14 11
6 5 6 12 15 14 13 17 19 20 24 14 14 7 3 3 8 13 13 14 16 15 13 16 17 16 14 13 12 12 13 12 12 12 11 12 13 15 15 16 16 14 12 12
10 4 5 9 3 14 7 5 3 6 2 5 4 7 5 5 12 15 15 17 18 16 15 15 15 17 17 16 14 13 12 12 12 12 10 11 11 13 15 15 15 15 13 12
16 11 6 6 8 11 14 6 3 2 7 11 9 8 7 10 15 18 14 13 19 19 16 14 12 14 17 17 16 13 13 13 12 13 12 12 11 11 14 14 16 15 14 13
6 13 8 4 7 8 3 4 3 3 11 6 7 9 11 14 13 15 19 16 16 17 14 14 15 15 16 16 14 13 15 14 15 13 12 12 12 10 12 15 15 15 14 15
3 3 13 12 10 7 7 3 5 7 8 3 7 12 14 15 14 18 18 18 17 14 16 16 16 16 18 15 12 16 17 18 15 14 13 12 11 11 13 15 14 15 16 15
5 6 5 2 4 10 3 5 7 9 13 19 18 20 19 19 19 20 19 17 15 17 19 19 17 18 18 16 15 18 20 18 16 16 13 12 10 10 11 15 16 15 15 17
7 9 5 10 6 3 7 12 15 16 17 19 18 17 13 14 15 15 16 18 18 19 16 16 16 19 19 18 16 19 19 17 18 12 10 11 13 13 14 15 16 15 14 14
12 10 11 12 17 20 21 17 16 16 17 14 6 6 8 12 13 16 16 16 16 16 16 16 18 20 21 17 18 18 19 17 11 14 15 15 16 18 17 14 13 13 13 12
12 7 9 15 18 19 19 18 15 8 1 3 5 7 9 11 14 15 16 17 17 17 16 16 18 19 22 20 20 19 20 19 20 20 19 19 16 17 17 15 14 13 14 15
14 18 12 15 19 16 17 12 2 2 1 4 7 10 9 10 14 16 16 16 17 17 17 17 18 19 20 20 20 19 18 19 19 20 15 14 13 13 14 14 15 24 30 33
Wind_Direction
134 210 212 232 226 258 286 272 281 279 283 291 287 285 280 279 273 264 273 283 294 290 310 342 334 324 310 275 257 241 232 225 211 206 208 214 220 214 217 212 209 204 202 199
170 233 232 296 276 246 258 270 273 280 291 288 294 296 281 265 263 263 277 287 286 302 342 9 13 15 357 326 304 281 262 247 224 218 218 222 225 229 226 222 219 212 204 199
239 259 240 213 242 250 244 262 280 284 315 278 306 283 268 256 252 270 253 268 281 304 348 23 21 23 14 6 350 324 275 242 225 221 221 226 238 235 217 221 217 215 211 204
253 284 230 206 246 236 271 264 258 278 297 298 15 295 300 268 284 270 35 308 291 357 21 52 39 14 21 8 354 348 326 288 257 231 226 224 226 235 237 234 227 216 212 207
242 166 170 209 234 183 257 45 222 225 273 304 253 264 13 169 264 309 52 29 355 321 30 32 20 14 26 21 19 14 5 353 294 240 240 240 240 250 246 238 240 224 218 219
257 112 217 238 160 189 122 288 289 223 255 253 299 241 31 19 134 104 360 350 353 30 36 29 32 28 22 17 16 15 16 17 348 273 252 251 256 255 251 234 235 231 224 220
185 208 221 190 240 160 170 271 293 265 236 270 349 281 249 300 291 336 347 11 32 30 28 26 19 15 13 14 16 20 15 10 7 345 304 281 268 265 260 248 238 226 218 219
272 271 193 164 217 260 204 233 237 266 273 288 281 264 267 86 350 36 50 57 41 33 29 23 19 17 14 13 13 9 13 18 10 358 345 315 296 278 268 259 247 238 225 215
253 248 193 233 211 207 142 208 260 274 274 280 270 270 270 236 73 60 42 23 22 23 21 20 17 15 12 9 6 5 4 6 9 6 357 345 323 299 281 269 254 249 230 215
293 283 221 174 168 211 248 341 245 220 253 250 263 266 258 286 351 64 33 30 19 14 17 11 2 3 2 3 2 2 5 4 1 0 359 352 340 320 299 287 264 248 241 232
294 252 265 263 242 260 246 248 238 270 248 251 255 260 273 14 70 21 27 35 20 23 22 14 5 359 354 356 359 360 2 358 358 356 356 353 349 343 322 296 280 266 252 236
256 275 274 271 272 266 263 259 256 248 238 225 248 257 286 320 75 65 27 31 33 28 7 357 353 354 355 352 354 352 352 353 351 349 347 350 348 350 351 330 304 286 267 248
37 234 263 268 233 80 241 252 264 268 293 252 261 256 291 323 334 34 28 67 359 348 3 356 352 353 351 346 346 345 346 345 346 341 338 343 349 351 349 345 328 301 277 268
16 228 272 275 294 316 269 227 251 267 263 296 271 283 288 298 329 338 9 348 336 331 343 351 353 345 346 339 338 336 336 341 339 338 337 340 348 344 340 338 338 331 304 278
1 266 278 278 304 298 284 286 280 270 265 257 284 285 285 334 330 328 323 330 331 324 336 342 340 339 334 328 325 327 326 332 334 329 332 332 339 339 333 338 332 338 330 302
62 279 327 284 280 274 288 279 269 269 266 263 259 268 62 331 305 308 317 327 326 320 326 333 328 325 323 318 316 319 316 320 325 326 326 327 334 334 330 331 331 332 335 323
266 260 267 269 291 312 278 258 271 276 273 296 273 298 128 330 328 322 311 300 304 293 303 324 324 322 316 307 302 301 303 306 307 306 305 317 328 327 329 331 328 324 320 325
239 218 251 277 332 254 312 33 301 288 262 200 174 186 201 311 319 308 304 288 292 280 287 307 315 313 315 307 300 299 292 293 293 292 295 304 313 314 320 319 316 316 315 313
230 236 241 252 240 306 295 236 258 295 290 214 222 207 242 293 301 290 304 283 278 272 277 289 299 301 303 298 298 296 289 291 287 286 289 297 308 303 311 310 310 307 307 301
207 220 214 164 244 264 339 166 120 143 277 189 198 242 270 307 297 298 313 302 284 270 269 290 299 300 296 294 299 293 290 290 285 288 288 294 301 297 301 301 300 305 300 295
135 194 223 231 250 272 260 176 142 264 302 143 266 278 282 283 280 286 298 290 286 284 291 295 299 297 293 296 293 290 290 285 291 286 278 283 289 297 296 297 296 296 297 295
212 182 200 157 235 270 174 146 231 296 305 306 304 300 300 299 297 299 303 306 310 302 304 305 302 296 296 298 300 291 284 291 293 285 274 281 283 290 295 294 294 289 288 286
253 218 234 213 229 234 209 260 279 288 288 291 298 304 314 304 307 311 305 305 305 305 304 305 302 300 298 301 299 294 294 301 296 291 285 284 288 291 291 289 288 288 280 275
250 236 246 267 248 255 264 272 277 281 284 299 310 314 318 306 310 304 306 308 311 311 310 311 307 300 298 304 305 301 306 313 318 299 292 293 291 292 289 282 276 274 273 270
238 198 225 249 259 268 267 265 272 283 35 313 314 320 318 319 310 310 308 309 311 312 313 310 304 300 300 306 305 308 308 308 299 296 294 292 289 285 283 274 273 270 269 269
232 239 237 251 261 262 272 296 114 237 256 330 326 320 324 321 311 314 309 312 312 311 310 303 302 301 300 300 299 299 295 293 293 292 291 288 289 285 281 281 281 271 273 274